If you wish to contribute or participate in the discussions about articles you are invited to join SKYbrary as a registered user

 Actions

Angoon Seaplane Base

From SKYbrary Wiki

PAGN
Airport
ICAO: PAGN – IATA: AGN
Summary
Name Angoon Seaplane Base
Region North America
Territory Alaska US.gif
Location Angoon, Alaska
Serving Angoon
Type seaplane base
Coordinates 57° 30' 12.9996", -134° 35' 6"
Close to Coastal Waters Of Southeast Alaska And British Columbia
Runways
Designator Length Width Surface ROPS
NW/SE 3048 m10,000 ft 274 m898.95 ft WATER /


METAR
Observation PAGN 210456Z AUTO 00000KT 10SM CLR 13/11 A2988 RMK AO2 SLP106 T01330106
Station Angoon
Date/Time 21 June 2018 04:56:00
Wind direction
Wind speed 00 kts
Lowest cloud amount n/a
Temperature 13.3°C
Dew point 10.6°C
Humidity 83%
QNH hPa
Weather condition n/a

Maps

Terrain

Loading map...

Airport Layout

Loading map...


Accidents & Serious Incidents at or in vicinity of PAGN

None on SKYbrary